Weather History for Dayton, OH

Change the Weather History Date:

Friday, June 14, 2013

  Actual Average Record
Temperature  
Mean Temperature 68 °F 70 °F  
Max Temperature 78 °F 80 °F 94 °F (1988)
Min Temperature 57 °F 61 °F 46 °F (1978)
Degree Days  
Heating Degree Days 0 1  
Month to date heating degree days 11 20  
Since 1 June heating degree days 11 20  
Since 1 July heating degree days 5457 5640  
Cooling Degree Days 3 6  
Month to date cooling degree days 62 68  
Year to date cooling degree days 193 138  
Since 1 June cooling degree days 62 68  
Growing Degree Days 18 (Base 50)    
Moisture  
Dew Point 56 °F    
Average Humidity 70    
Maximum Humidity 93    
Minimum Humidity 46    
Precipitation  
Precipitation 0.00 in 0.13 in 1.29 in (1996)
Month to date precipitation 2.09 1.96  
Year to date precipitation 16.39 19.00  
Snow  
Snow 0.00 in 0.00 in - (0.0)
Month to date snowfall 0.0 0.0  
Since 1 June snowfall 0.0 0.0  
Since 1 July snowfall 36.3 23.3  
Snow Depth 0.00 in    
Sea Level Pressure  
Sea Level Pressure 30.02 in    
Wind  
Wind Speed 7 mph (NNW)    
Max Wind Speed 15 mph    
Max Gust Speed 17 mph    
Visibility 10 miles    
Events      
T = Trace of Precipitation, MM = Missing Value Source: NWS Daily Summary

Daily Weather History Graph

Daily Weather History Graph

Search for Another Location

Airport:

Trip Planner

Search our weather history database for the weather conditions in past years. The results will help you decide how hot, cold, wet, or windy it might be!

Date:

Astronomy

Jun. 14, 2013 Rise Set
Actual Time 6:07 AM EDT 9:06 PM EDT
Civil Twilight 5:35 AM EDT 9:39 PM EDT
Nautical Twilight 4:53 AM EDT 10:21 PM EDT
Astronomical Twilight 4:05 AM EDT 11:09 PM EDT
Moon 11:41 AM EDT (6/14) 12:12 AM EDT (6/14)
Length of Visible Light 16h 04m
Length of Day
14h 59m
Waxing Crescent, 30% of the Moon is Illuminated
Jun 14
Waxing Crescent
Jun 16
First Quarter
Jun 23
Full
Jun 30
Last Quarter
Jul 8
New

Hourly Weather History & Observations

Time (EDT) Temp. Dew Point Humidity Pressure Visibility Wind Dir Wind Speed Gust Speed Precip Events Conditions
12:56 AM 63.0 °F 54.0 °F 72% 29.94 in 10.0 mi NW 11.5 mph - N/A   Clear
1:56 AM 62.1 °F 54.0 °F 75% 29.94 in 10.0 mi NW 8.1 mph - N/A   Mostly Cloudy
2:56 AM 62.1 °F 54.0 °F 75% 29.94 in 10.0 mi NNW 6.9 mph - N/A   Mostly Cloudy
3:56 AM 59.0 °F 54.0 °F 83% 29.94 in 10.0 mi NNW 4.6 mph - N/A   Partly Cloudy
4:56 AM 57.9 °F 54.0 °F 87% 29.94 in 10.0 mi North 4.6 mph - N/A   Clear
5:56 AM 57.0 °F 54.0 °F 89% 29.96 in 10.0 mi NNW 4.6 mph - N/A   Clear
6:56 AM 57.9 °F 55.0 °F 90% 29.99 in 10.0 mi NNW 5.8 mph - N/A   Clear
7:56 AM 61.0 °F 57.0 °F 87% 30.01 in 10.0 mi North 8.1 mph - N/A   Clear
8:56 AM 66.0 °F 57.9 °F 75% 30.04 in 10.0 mi North 5.8 mph - N/A   Clear
9:56 AM 69.1 °F 57.9 °F 68% 30.04 in 10.0 mi NNE 8.1 mph - N/A   Clear
10:56 AM 70.0 °F 57.9 °F 65% 30.06 in 10.0 mi North 8.1 mph - N/A   Scattered Clouds
11:56 AM 72.0 °F 57.9 °F 61% 30.07 in 10.0 mi North 9.2 mph - N/A   Mostly Cloudy
12:56 PM 72.0 °F 57.9 °F 61% 30.07 in 10.0 mi NNW 11.5 mph - N/A   Mostly Cloudy
1:56 PM 73.0 °F 57.0 °F 57% 30.06 in 10.0 mi North 10.4 mph 17.3 mph N/A   Mostly Cloudy
2:56 PM 75.9 °F 55.9 °F 50% 30.04 in 10.0 mi NNE 11.5 mph - N/A   Scattered Clouds
3:56 PM 77.0 °F 55.9 °F 48% 30.04 in 10.0 mi NE 6.9 mph - N/A   Scattered Clouds
4:56 PM 73.9 °F 55.0 °F 52% 30.05 in 10.0 mi North 6.9 mph - N/A   Scattered Clouds
5:56 PM 75.0 °F 55.0 °F 50% 30.05 in 10.0 mi NNW 8.1 mph - N/A   Scattered Clouds
6:56 PM 75.9 °F 54.0 °F 46% 30.04 in 10.0 mi NNW 8.1 mph - N/A   Scattered Clouds
7:56 PM 73.9 °F 55.0 °F 52% 30.04 in 10.0 mi NNW 6.9 mph - N/A   Partly Cloudy
8:56 PM 72.0 °F 55.9 °F 57% 30.05 in 10.0 mi NNW 4.6 mph - N/A   Partly Cloudy
9:56 PM 69.1 °F 55.9 °F 63% 30.06 in 10.0 mi NNW 4.6 mph - N/A   Partly Cloudy
10:56 PM 66.0 °F 55.0 °F 68% 30.07 in 10.0 mi Calm Calm - N/A   Clear
11:56 PM 66.0 °F 55.9 °F 70% 30.07 in 10.0 mi ENE 5.8 mph - N/A   Clear